Weather Roundup
Issued by NWS Chicago, IL

Home | Current Version | Previous Version | Graphics & Text | Print | Product List | Glossary On
Versions: 1 2 3 4 5 6 7 8 9 10 11 12 13 14 15 16 17 18 19 20 21 22 23 24 25 26 27 28 29 30 31 32 33 34 35 36 37 38 39 40 41 42 43 44 45 46 47 48 49 50
000
NZUS59 KLOT 240203
HRRLOT

CHICAGO AREA WEATHER ROUNDUP
NATIONAL WEATHER SERVICE CHICAGO/ROMEOVILLE IL
900 PM CDT SAT JUL 23 2016

NOTE: "FAIR" INDICATES FEW OR NO CLOUDS BELOW 12,000 FEET WITH NO
SIGNIFICANT WEATHER AND/OR OBSTRUCTIONS TO VISIBILITY.

* THESE STATIONS ARE NOT UNDER NWS QUALITY CONTROL. THEY ALSO MAY NOT
  REPORT WEATHER SUCH AS PRECIPITATION OR FOG.

ILZ005-006-012>014-019>023-240300-
NORTHEAST ILLINOIS

CITY           SKY/WX    TMP DP  RH WIND       PRES   REMARKS
OHARE          CLOUDY    74  69  85 SE13      29.93F
MIDWAY         CLOUDY    75  70  84 E13       29.94F
AURORA         CLOUDY    77  71  82 E7        29.95R
LANSING*       CLOUDY    75  72  90 E7        29.95F
WAUKEGAN       TSTM      71  68  90 W13G24    30.00R FOG
DUPAGE AIRPORT CLOUDY    74  69  85 E5        29.95S
WHEELING       CLOUDY    73  69  87 VRB3      29.95S
MORRIS*        CLOUDY    79  72  80 E7        29.93R HX  82
NORTHERLY ISL    N/A     71  69  93 E10         N/A
$$

WIZ051-052-058>065-066-070>072-240300-
SOUTHEAST WISCONSIN

CITY           SKY/WX    TMP DP  RH WIND       PRES   REMARKS
MILWAUKEE      TSTM      75  71  87 W8        29.97R
KENOSHA*       RAIN      72  69  90 W10G20    30.00R FOG
RACINE*        LGT RAIN  73  68  84 W13G21    30.01R
BURLINGTON     LGT RAIN  71  70  97 E5        29.96F
WAUKESHA       RAIN      70  68  94 S9        29.98R
$$

INZ001>003-010>013-019-020-240300-
NORTHWEST INDIANA

CITY           SKY/WX    TMP DP  RH WIND       PRES   REMARKS
GARY*          NOT AVBL
MICHIGAN CITY* NOT AVBL
RENSSELAER*    NOT AVBL
VALPARAISO     CLOUDY    75  69  81 NE13G23   29.99F
$$

LMZ740>746-240300-
SOUTHERN LAKE MICHIGAN

STATION/POSITION TIME  SKY/WX   TEMP WIND        PRES    VSBY
                                AIR  DIR/SP/G
                 (UTC)          (F)  (DEG/KT/KT) (MB)    (MI)
HARRISON CRIB    0100            73   70/ 21/ 23   N/A
BURNHAM HARBOR   0200            71  110/ 11/ 16   N/A
CALUMET HARBOR   0106                 50/ 13/ 20   N/A
BURNS HARBOR     0100            74  340/ 26     1015.2R
MICHIGAN CITY    0100            74                N/A
$$

ABBREVIATIONS USED IN REMARKS
   TC - TEMPERATURE IN CELSIUS
  WCI - WIND CHILL INDEX
   HX - HEAT INDEX
  VSB - VISIBILITY
$$



USA.gov is the U.S. government's official web portal to all federal, state and local government web resources and services.